Tracking 19570 objects as of 22-Feb-2019
HD Live streaming from Space Station
objects crossing your sky now

SLOSHSAT

Track SLOSHSAT now!
SLOSHSAT is classified as:


NORAD ID: 28544
Int'l Code: 2005-005C
Perigee: 259.7 km
Apogee: 32,757.9 km
Inclination: 6.7 °
Period: 574.0 minutes
Semi major axis: 22879 km
RCS: 0.5011 m2 (medium)
Launch date: February 12, 2005
Source: European Space Agency (ESA)
Launch site: FRENCH GUIANA (FRGUI)
aabbcc
Your satellite tracking list
Your tracking list is empty




NASA's NSSDC Master Catalog

Two Line Element Set (TLE):
1 28544U 05005C   19050.07009446  .00001357  00000-0  32817-3 0  9998
2 28544   6.6884 200.0070 7101953 267.7180  16.8652  2.50856678122115
Source of the keplerian elements: AFSPC